Regional Weather Roundup
Issued by NWS

Home | Current Version | Previous Version | Graphics & Text | Print | Product List | Glossary On
Versions: 1 2 3 4 5 6 7 8 9 10 11 12 13 14 15 16 17 18 19 20 21 22 23 24 25 26 27 28 29 30 31 32 33 34 35 36 37 38 39 40 41 42 43 44 45 46 47 48 49 50
519
ASUS44 KJAN 202010
RWRMS

MISSISSIPPI HOURLY WEATHER ROUNDUP
NATIONAL WEATHER SERVICE JACKSON MS
300 PM CDT WED AUG 20 2014

NOTE: "FAIR: INDICATES FEW OR NO CLOUDS BELOW 12,000 FEET WITH NO
SIGNIFICANT WEATHER AND/OR OBSTRUCTIONS TO VISIBILITY.

MSZ001>002-007>008-010>013-018>021-025>028-034>036-202100-
NORTHWEST MISSISSIPPI

CITY           SKY/WX    TMP DP  RH WIND       PRES   REMARKS
CLARKSDALE     FAIR      91  73  55 CALM      30.04F HX 100
CLEVELAND      FAIR      91  74  56 W6        30.04F HX 101
GREENWOOD      SUNNY     91  72  53 CALM      30.04F HX  98
GREENVILLE       N/A    N/A N/A N/A MISG      30.04F
GRENADA        FAIR      91  72  52 W5        30.04F HX  98
OLIVE BRANCH   MOSUNNY   91  72  52 SW7       30.03F HX  98
OXFORD         FAIR      90  70  51 W6        30.07F HX  95
TUNICA         CLEAR     91  70  49 SW12      30.03F HX  97
$$

MSZ003>006-009-014>017-022>024-029>033-037>039-202100-
NORTHEAST MISSISSIPPI

CITY           SKY/WX    TMP DP  RH WIND       PRES   REMARKS
BELMONT        FAIR      91  75  61 W6        30.04F HX 101
COLUMBUS AFB   SUNNY     94  69  43 W6        30.03F HX  99
CORINTH        FAIR      91  73  55 W9        30.01F HX 100
STARKVILLE     FAIR      95  68  41 SW3       30.04F HX  99
TUPELO         SUNNY     95  68  41 VRB7      30.03F HX  99
$$

MSZ040-058-202100-
CENTRAL MISSISSIPPI

CITY           SKY/WX    TMP DP  RH WIND       PRES   REMARKS
JACKSON INTL   MOSUNNY   94  68  42 CALM      30.05F HX  98
JACKSON HAWKNS MOSUNNY   93  70  46 W6        30.05F HX  99
MERIDIAN KEY   MOSUNNY   92  70  48 CALM      30.04F HX  97
MERIDIAN NAS   MOSUNNY   93  70  46 SW9       30.05F HX  99
RAYMOND        FAIR      93  86  79 SW7       30.04F HX 125
VICKSBURG      MOSUNNY   91  72  53 SE7       30.03F HX  98
$$

MSZ059>079-202100-
SOUTH MISSISSIPPI

CITY           SKY/WX    TMP DP  RH WIND       PRES   REMARKS
BROOKHAVEN     MOCLDY    91  72  52 SE6       30.07F HX  98
COLUMBIA       FAIR      91  72  52 MISG      30.04F HX  98
HATTIESBURG    PTSUNNY   96  65  35 SW6       30.05F HX  98
MCCOMB         MOSUNNY   93  67  42 W5        30.04F HX  96
NATCHEZ        MOSUNNY   91  73  55 SE5       30.04F HX 100
PINE BELT      SUNNY     93  66  40 CALM      30.07F HX  96
$$

MSZ080>082-202100-
COASTAL MISSISSIPPI

CITY           SKY/WX    TMP DP  RH WIND       PRES   REMARKS
BAY ST LOUIS   MOSUNNY  N/A N/A N/A E6        30.05F
BILOXI         MOSUNNY   92  76  59 S12       30.05F HX 104
PASCAGOULA     MOSUNNY   91  76  61 S7        30.05F HX 103
GULFPORT       MOSUNNY   92  75  57 S10       30.05F HX 103
$$



USA.gov is the U.S. government's official web portal to all federal, state and local government web resources and services.